{"data":{"norad_id":62280,"epoch":"2026-09-21T11:55:58.728864Z","epoch_age_seconds":91445,"freshness":"FRESH","line1":"1 62280U 24237P   26264.49720751  .00006626  00000+0  25013-3 0  9994","line2":"2 62280  43.0053 179.6840 0001434 266.3831  93.6857 15.27574831101262","mean_motion":15.27574831,"eccentricity":0.0001434,"inclination_deg":43.0053,"raan_deg":179.684,"arg_perigee_deg":266.3831,"mean_anomaly_deg":93.6857,"bstar":0.00025013,"rev_number":10126,"period_min":94.267067693,"perigee_km":482.08067762313,"apogee_km":484.04847023454,"semimajor_km":6861.2015739288,"source":"CELESTRAK","updated_at":"2026-09-22T09:00:49.568350Z"}}